Location: Berduj
(43.0019°N, 22.3781°E)
Time: 16:40:09
(UTC+00:00)

ISS - Visible Passes

Search period start: 11 December 2019 00:00
Search period end: 21 December 2019 00:00
Orbit: 411 x 421 km, 51.6° (Epoch: 12 December)

Date Brightness Start Highest point End Pass type
(mag) Time Alt. Az. Time Alt. Az. Time Alt. Az.
11 Dec -0.9 16:41:04 10° W 16:43:27 18° SW 16:45:49 10° S visible
12 Dec -1.7 15:52:06 10° WNW 15:55:05 30° SW 15:58:04 10° SSE visible
14 Dec -0.2 15:53:11 10° WSW 15:54:24 12° SW 15:55:37 10° SSW visible
19 Dec -0.5 05:21:23 10° S 05:23:33 16° SE 05:25:43 10° E visible
